NIMIQ 6

Last updated on Tue Sep 16 2025 00:02:47 GMT+0000 (Coordinated Universal Time)

1 38342U 12026A 25258.56646253 -.00000190 00000+0 00000+0 0 9999 2 38342 0.0150 246.2701 0002749 294.0486 287.2820 1.00271988 47663
UTC large
Height (km)
Speed (km/s)
/
Latitude / Longitude
Inclination (degrees)
Orbital Period (minutes)
Azimuth
Elevation
Range (km)
Doppler Factor

Next 0 passes for location: London (51.5072 / 0.1276)

Sorry there are no passes over London.